| time (UTC) | temp F | wind direction | speed MPH | gust MPH | rain 1hr in | rain 24hr in | rain mn in | humidity % | barometer mb |
| 20260906035957 | 73 | 328 | 8.0 | 0.0 | 0.18 | 0.18 | 0.00 | 77 | 1014.8 |
| 20260906035511 | 73 | 5 | 6.0 | 0.0 | 0.18 | 0.18 | 0.00 | 78 | 1014.8 |
| 20260906034956 | 73 | 341 | 4.0 | 0.0 | 0.18 | 0.18 | 0.00 | 78 | 1014.8 |
| 20260906034457 | 73 | 353 | 6.0 | 0.0 | 0.18 | 0.18 | 0.00 | 78 | 1014.6 |
| 20260906033956 | 72 | 340 | 7.0 | 0.0 | 0.18 | 0.18 | 0.00 | 78 | 1014.5 |
| 20260906033456 | 73 | 359 | 3.0 | 0.0 | 0.18 | 0.18 | 0.00 | 79 | 1014.5 |
| 20260906033010 | 73 | 7 | 7.0 | 0.0 | 0.18 | 0.18 | 0.00 | 79 | 1014.5 |
| 20260906032455 | 73 | 77 | 1.0 | 0.0 | 0.18 | 0.18 | 0.00 | 79 | 1014.5 |
| 20260906032012 | 73 | 34 | 0.0 | 0.0 | 0.18 | 0.18 | 0.00 | 80 | 1014.4 |
| 20260906031510 | 73 | 42 | 2.0 | 0.0 | 0.18 | 0.18 | 0.00 | 80 | 1014.3 |
| 20260906030955 | 73 | 87 | 4.0 | 0.0 | 0.18 | 0.18 | 0.00 | 80 | 1014.2 |
| 20260906030455 | 73 | 320 | 4.0 | 0.0 | 0.18 | 0.18 | 0.00 | 80 | 1014.1 |
| 20260906025957 | 73 | 350 | 4.0 | 0.0 | 0.18 | 0.18 | 0.00 | 80 | 1014.0 |
| 20260906025455 | 73 | 39 | 3.0 | 0.0 | 0.18 | 0.18 | 0.00 | 79 | 1014.0 |
| 20260906025010 | 73 | 132 | 1.0 | 0.0 | 0.18 | 0.18 | 0.00 | 80 | 1013.8 |
| 20260906024455 | 73 | 358 | 6.0 | 0.0 | 0.18 | 0.18 | 0.00 | 79 | 1013.8 |
| 20260906023955 | 74 | 355 | 9.0 | 0.0 | 0.18 | 0.18 | 0.00 | 79 | 1013.7 |
| 20260906023455 | 74 | 344 | 3.0 | 0.0 | 0.18 | 0.18 | 0.00 | 79 | 1013.6 |
| 20260906022957 | 74 | 358 | 4.0 | 0.0 | 0.18 | 0.18 | 0.00 | 80 | 1013.6 |
| 20260906022455 | 74 | 60 | 4.0 | 0.0 | 0.18 | 0.18 | 0.00 | 80 | 1013.6 |
| 20260906021955 | 74 | 342 | 7.0 | 0.0 | 0.18 | 0.18 | 0.00 | 80 | 1013.5 |
| 20260906021456 | 75 | 8 | 5.0 | 0.0 | 0.18 | 0.18 | 0.00 | 80 | 1013.4 |
| 20260906020955 | 75 | 126 | 1.0 | 0.0 | 0.18 | 0.18 | 0.00 | 80 | 1013.4 |
| 20260906020455 | 75 | 55 | 4.0 | 0.0 | 0.18 | 0.18 | 0.00 | 80 | 1013.3 |
| 20260906020010 | 75 | 167 | 0.0 | 0.0 | 0.18 | 0.18 | 0.00 | 81 | 1013.3 |
| 20260906015455 | 75 | 120 | 3.0 | 0.0 | 0.18 | 0.18 | 0.00 | 81 | 1013.2 |
| 20260906014955 | 75 | 21 | 5.0 | 0.0 | 0.18 | 0.18 | 0.00 | 80 | 1013.2 |
| 20260906014510 | 75 | 353 | 4.0 | 0.0 | 0.18 | 0.18 | 0.00 | 80 | 1013.2 |
| 20260906013956 | 75 | 34 | 4.0 | 0.0 | 0.18 | 0.18 | 0.00 | 80 | 1013.1 |
| 20260906013455 | 76 | 354 | 5.0 | 0.0 | 0.18 | 0.18 | 0.00 | 80 | 1013.0 |
| 20260906012955 | 76 | 348 | 6.0 | 0.0 | 0.18 | 0.18 | 0.00 | 80 | 1012.9 |
| 20260906012455 | 76 | 336 | 1.0 | 0.0 | 0.18 | 0.18 | 0.00 | 80 | 1012.9 |
| 20260906012010 | 76 | 238 | 0.0 | 0.0 | 0.18 | 0.18 | 0.00 | 80 | 1012.9 |
| 20260906011510 | 76 | 82 | 0.0 | 0.0 | 0.18 | 0.18 | 0.00 | 79 | 1012.8 |
| 20260906010957 | 77 | 6 | 1.0 | 0.0 | 0.18 | 0.18 | 0.00 | 79 | 1012.8 |
| 20260906010455 | 77 | 332 | 0.0 | 0.0 | 0.18 | 0.18 | 0.00 | 78 | 1012.8 |
| 20260906005955 | 77 | 334 | 1.0 | 0.0 | 0.18 | 0.18 | 0.00 | 78 | 1012.8 |
| 20260906005455 | 77 | 287 | 1.0 | 0.0 | 0.18 | 0.18 | 0.00 | 78 | 1012.6 |
| 20260906004955 | 78 | 353 | 0.0 | 0.0 | 0.18 | 0.18 | 0.00 | 77 | 1012.6 |
| 20260906004457 | 78 | 107 | 3.0 | 0.0 | 0.18 | 0.18 | 0.00 | 77 | 1012.4 |
| 20260906003955 | 78 | 67 | 6.0 | 0.0 | 0.18 | 0.18 | 0.00 | 76 | 1012.3 |
| 20260906003457 | 78 | 345 | 3.0 | 0.0 | 0.18 | 0.18 | 0.00 | 74 | 1012.2 |
| 20260906003011 | 79 | 5 | 4.0 | 0.0 | 0.18 | 0.18 | 0.00 | 73 | 1012.1 |
| 20260906002511 | 79 | 11 | 3.0 | 0.0 | 0.18 | 0.18 | 0.00 | 72 | 1012.1 |
| 20260906001956 | 79 | 340 | 2.0 | 0.0 | 0.18 | 0.18 | 0.00 | 71 | 1012.1 |
| 20260906001455 | 79 | 318 | 3.0 | 0.0 | 0.18 | 0.18 | 0.00 | 69 | 1012.1 |
| 20260906000957 | 80 | 337 | 8.0 | 0.0 | 0.18 | 0.18 | 0.00 | 67 | 1012.1 |
| 20260906000457 | 80 | 334 | 2.0 | 0.0 | 0.18 | 0.18 | 0.00 | 66 | 1012.0 |
| 20260905235956 | 81 | 20 | 6.0 | 0.0 | 0.18 | 0.18 | 0.00 | 65 | 1012.0 |
| 20260905235455 | 81 | 44 | 2.0 | 0.0 | 0.18 | 0.18 | 0.00 | 64 | 1012.0 |
| 20260905234955 | 82 | 134 | 1.0 | 0.0 | 0.18 | 0.18 | 0.00 | 64 | 1012.0 |
| 20260905234457 | 82 | 343 | 3.0 | 0.0 | 0.18 | 0.18 | 0.00 | 66 | 1012.0 |
| 20260905233955 | 82 | 7 | 4.0 | 0.0 | 0.18 | 0.18 | 0.00 | 66 | 1011.9 |
| 20260905233455 | 82 | 52 | 3.0 | 0.0 | 0.18 | 0.18 | 0.00 | 66 | 1011.8 |
| 20260905232957 | 82 | 340 | 4.0 | 0.0 | 0.18 | 0.18 | 0.00 | 67 | 1011.8 |
| 20260905232455 | 82 | 313 | 3.0 | 0.0 | 0.18 | 0.18 | 0.00 | 68 | 1011.8 |
| 20260905231955 | 81 | 337 | 7.0 | 0.0 | 0.18 | 0.18 | 0.00 | 69 | 1011.8 |
| 20260905231455 | 81 | 31 | 4.0 | 0.0 | 0.18 | 0.18 | 0.00 | 71 | 1011.8 |
| 20260905230957 | 80 | 308 | 5.0 | 0.0 | 0.18 | 0.18 | 0.00 | 72 | 1011.8 |
| 20260905230455 | 79 | 25 | 8.0 | 0.0 | 0.18 | 0.18 | 0.00 | 74 | 1011.9 |
| 20260905225956 | 79 | 321 | 5.0 | 0.0 | 0.18 | 0.18 | 0.00 | 73 | 1011.9 |
| 20260905225456 | 79 | 353 | 8.0 | 0.0 | 0.18 | 0.18 | 0.00 | 72 | 1012.0 |
| 20260905224957 | 79 | 345 | 8.0 | 0.0 | 0.18 | 0.18 | 0.00 | 73 | 1012.0 |
| 20260905224455 | 79 | 1 | 12.0 | 0.0 | 0.18 | 0.18 | 0.00 | 72 | 1012.0 |
| 20260905224010 | 79 | 343 | 11.0 | 0.0 | 0.18 | 0.18 | 0.00 | 72 | 1012.0 |
| 20260905223455 | 79 | 337 | 10.0 | 0.0 | 0.18 | 0.18 | 0.00 | 73 | 1012.0 |
| 20260905222955 | 79 | 47 | 11.0 | 0.0 | 0.18 | 0.18 | 0.00 | 73 | 1012.0 |
| 20260905222511 | 78 | 343 | 11.0 | 0.0 | 0.18 | 0.18 | 0.00 | 75 | 1011.9 |
| 20260905221957 | 78 | 55 | 9.0 | 0.0 | 0.18 | 0.18 | 0.00 | 76 | 1012.0 |
| 20260905221456 | 78 | 1 | 14.0 | 0.0 | 0.18 | 0.18 | 0.00 | 75 | 1012.0 |
| 20260905221012 | 78 | 358 | 15.0 | 0.0 | 0.18 | 0.18 | 0.00 | 74 | 1012.0 |
| 20260905220455 | 78 | 354 | 11.0 | 0.0 | 0.18 | 0.18 | 0.00 | 75 | 1012.0 |
| 20260905215956 | 78 | 331 | 7.0 | 0.0 | 0.18 | 0.18 | 0.00 | 76 | 1012.0 |
| 20260905215456 | 78 | 2 | 12.0 | 0.0 | 0.18 | 0.18 | 0.00 | 76 | 1012.0 |
| 20260905214957 | 78 | 5 | 14.0 | 0.0 | 0.18 | 0.18 | 0.00 | 78 | 1012.0 |
| 20260905214455 | 77 | 293 | 13.0 | 0.0 | 0.18 | 0.18 | 0.00 | 81 | 1012.1 |
| 20260905213957 | 75 | 329 | 8.0 | 0.0 | 0.18 | 0.18 | 0.00 | 83 | 1012.1 |
| 20260905213456 | 74 | 38 | 4.0 | 0.0 | 0.18 | 0.18 | 0.00 | 85 | 1012.2 |
| 20260905213011 | 73 | 14 | 11.0 | 0.0 | 0.18 | 0.18 | 0.00 | 86 | 1012.2 |
| 20260905212455 | 72 | 59 | 7.0 | 0.0 | 0.18 | 0.18 | 0.00 | 86 | 1012.4 |
| 20260905211956 | 71 | 357 | 11.0 | 0.0 | 0.18 | 0.18 | 0.00 | 86 | 1012.5 |
| 20260905211455 | 71 | 341 | 14.0 | 0.0 | 0.18 | 0.18 | 0.00 | 86 | 1012.7 |
| 20260905210957 | 71 | 24 | 7.0 | 0.0 | 0.18 | 0.18 | 0.00 | 85 | 1012.8 |
| 20260905210457 | 71 | 359 | 16.0 | 0.0 | 0.18 | 0.18 | 0.00 | 86 | 1012.7 |
| 20260905205955 | 71 | 348 | 13.0 | 0.0 | 0.18 | 0.18 | 0.00 | 84 | 1012.8 |
| 20260905205510 | 71 | 69 | 11.0 | 0.0 | 0.18 | 0.18 | 0.00 | 84 | 1013.0 |
| 20260905204955 | 72 | 35 | 11.0 | 0.0 | 0.18 | 0.18 | 0.00 | 83 | 1013.2 |
| 20260905204510 | 72 | 127 | 14.0 | 0.0 | 0.17 | 0.17 | 0.00 | 82 | 1013.3 |
| 20260905203955 | 72 | 97 | 13.0 | 0.0 | 0.17 | 0.17 | 0.00 | 85 | 1013.5 |
| 20260905203455 | 72 | 46 | 13.0 | 0.0 | 0.17 | 0.17 | 0.00 | 87 | 1013.5 |
| 20260905202956 | 73 | 71 | 13.0 | 0.0 | 0.17 | 0.17 | 0.00 | 85 | 1013.3 |
| 20260905202455 | 73 | 58 | 2.0 | 0.0 | 0.17 | 0.17 | 0.00 | 87 | 1013.1 |
| 20260905201955 | 73 | 351 | 10.0 | 0.0 | 0.17 | 0.17 | 0.00 | 86 | 1013.1 |
| 20260905201457 | 73 | 80 | 4.0 | 0.0 | 0.17 | 0.17 | 0.00 | 87 | 1013.0 |
| 20260905200957 | 73 | 280 | 0.0 | 0.0 | 0.17 | 0.17 | 0.00 | 87 | 1012.9 |
| 20260905200457 | 73 | 49 | 6.0 | 0.0 | 0.17 | 0.17 | 0.00 | 88 | 1013.1 |
| 20260905200011 | 73 | 63 | 7.0 | 0.0 | 0.16 | 0.16 | 0.00 | 87 | 1013.2 |
| 20260905195455 | 74 | 97 | 3.0 | 0.0 | 0.12 | 0.12 | 0.00 | 83 | 1013.4 |
| 20260905194956 | 74 | 184 | 18.0 | 0.0 | 0.10 | 0.10 | 0.00 | 79 | 1013.2 |
| 20260905194457 | 77 | 168 | 16.0 | 0.0 | 0.06 | 0.06 | 0.00 | 81 | 1013.1 |
| 20260905193955 | 78 | 156 | 18.0 | 0.0 | 0.02 | 0.02 | 0.00 | 73 | 1012.8 |
| 20260905193510 | 81 | 163 | 13.0 | 0.0 | 0.00 | 0.00 | 0.00 | 71 | 1012.9 |
| 20260905192955 | 82 | 144 | 14.0 | 0.0 | 0.00 | 0.00 | 0.00 | 68 | 1012.9 |
| 20260905192455 | 85 | 161 | 12.0 | 0.0 | 0.00 | 0.00 | 0.00 | 62 | 1012.8 |
| 20260905191955 | 86 | 91 | 14.0 | 0.0 | 0.00 | 0.00 | 0.00 | 61 | 1012.9 |
| 20260905191455 | 86 | 121 | 11.0 | 0.0 | 0.00 | 0.00 | 0.00 | 58 | 1012.9 |
| 20260905190956 | 87 | 123 | 26.0 | 0.0 | 0.00 | 0.00 | 0.00 | 57 | 1012.8 |
| 20260905190456 | 86 | 160 | 20.0 | 0.0 | 0.00 | 0.00 | 0.00 | 56 | 1012.8 |
| 20260905185955 | 86 | 173 | 15.0 | 0.0 | 0.00 | 0.00 | 0.00 | 57 | 1012.8 |
| 20260905185457 | 85 | 92 | 16.0 | 0.0 | 0.00 | 0.00 | 0.00 | 58 | 1012.8 |
| 20260905184955 | 86 | 134 | 15.0 | 0.0 | 0.00 | 0.00 | 0.00 | 58 | 1013.0 |
| 20260905184457 | 86 | 146 | 15.0 | 0.0 | 0.00 | 0.00 | 0.00 | 59 | 1013.2 |
| 20260905183956 | 86 | 159 | 21.0 | 0.0 | 0.00 | 0.00 | 0.00 | 59 | 1013.2 |
| 20260905183455 | 86 | 161 | 15.0 | 0.0 | 0.00 | 0.00 | 0.00 | 60 | 1013.3 |
| 20260905182955 | 85 | 87 | 5.0 | 0.0 | 0.00 | 0.00 | 0.00 | 61 | 1013.4 |
| 20260905182457 | 86 | 149 | 16.0 | 0.0 | 0.00 | 0.00 | 0.00 | 59 | 1013.4 |
| 20260905181956 | 86 | 171 | 13.0 | 0.0 | 0.00 | 0.00 | 0.00 | 59 | 1013.4 |
| 20260905181457 | 87 | 160 | 15.0 | 0.0 | 0.00 | 0.00 | 0.00 | 56 | 1013.6 |
| 20260905180957 | 86 | 184 | 6.0 | 0.0 | 0.00 | 0.00 | 0.00 | 55 | 1013.6 |
| 20260905180510 | 86 | 171 | 15.0 | 0.0 | 0.00 | 0.00 | 0.00 | 55 | 1013.7 |
| 20260905175956 | 85 | 85 | 9.0 | 0.0 | 0.00 | 0.00 | 0.00 | 56 | 1013.6 |
| 20260905175456 | 86 | 150 | 27.0 | 0.0 | 0.00 | 0.00 | 0.00 | 55 | 1013.6 |
| 20260905174956 | 86 | 132 | 17.0 | 0.0 | 0.00 | 0.00 | 0.00 | 55 | 1013.6 |
| 20260905174457 | 85 | 75 | 8.0 | 0.0 | 0.00 | 0.00 | 0.00 | 56 | 1013.7 |
| 20260905173955 | 85 | 141 | 12.0 | 0.0 | 0.00 | 0.00 | 0.00 | 57 | 1013.7 |
| 20260905173455 | 85 | 156 | 28.0 | 0.0 | 0.00 | 0.00 | 0.00 | 56 | 1013.8 |
| 20260905173011 | 85 | 136 | 21.0 | 0.0 | 0.00 | 0.00 | 0.00 | 54 | 1013.8 |
| 20260905172457 | 85 | 144 | 28.0 | 0.0 | 0.00 | 0.00 | 0.00 | 56 | 1013.8 |
| 20260905171957 | 85 | 165 | 17.0 | 0.0 | 0.00 | 0.00 | 0.00 | 58 | 1013.7 |
| 20260905171456 | 86 | 113 | 6.0 | 0.0 | 0.00 | 0.00 | 0.00 | 56 | 1013.6 |
| 20260905170957 | 86 | 131 | 10.0 | 0.0 | 0.00 | 0.00 | 0.00 | 55 | 1013.5 |
| 20260905170511 | 85 | 143 | 3.0 | 0.0 | 0.00 | 0.00 | 0.00 | 56 | 1013.6 |
| 20260905165956 | 85 | 155 | 10.0 | 0.0 | 0.00 | 0.00 | 0.00 | 55 | 1013.6 |
| 20260905165457 | 85 | 150 | 4.0 | 0.0 | 0.00 | 0.00 | 0.00 | 54 | 1013.7 |
| 20260905164956 | 84 | 33 | 2.0 | 0.0 | 0.00 | 0.00 | 0.00 | 56 | 1013.6 |
| 20260905164510 | 84 | 109 | 3.0 | 0.0 | 0.00 | 0.00 | 0.00 | 56 | 1013.6 |
| 20260905163955 | 83 | 79 | 5.0 | 0.0 | 0.00 | 0.00 | 0.00 | 56 | 1013.6 |
| 20260905163455 | 82 | 55 | 3.0 | 0.0 | 0.00 | 0.00 | 0.00 | 60 | 1013.5 |
| 20260905163010 | 82 | 332 | 8.0 | 0.0 | 0.00 | 0.00 | 0.00 | 59 | 1013.5 |
| 20260905162457 | 81 | 322 | 3.0 | 0.0 | 0.00 | 0.00 | 0.00 | 60 | 1013.6 |
| 20260905161957 | 81 | 80 | 5.0 | 0.0 | 0.00 | 0.00 | 0.00 | 60 | 1013.5 |
| 20260905161512 | 80 | 357 | 8.0 | 0.0 | 0.00 | 0.00 | 0.00 | 60 | 1013.5 |
| 20260905160957 | 80 | 13 | 11.0 | 0.0 | 0.00 | 0.00 | 0.00 | 61 | 1013.5 |
| 20260905160455 | 80 | 331 | 9.0 | 0.0 | 0.00 | 0.00 | 0.00 | 62 | 1013.5 |
| 20260905155955 | 80 | 346 | 13.0 | 0.0 | 0.00 | 0.00 | 0.00 | 61 | 1013.5 |
| 20260905155455 | 79 | 350 | 9.0 | 0.0 | 0.00 | 0.00 | 0.00 | 62 | 1013.5 |
| 20260905154956 | 79 | 346 | 5.0 | 0.0 | 0.00 | 0.00 | 0.00 | 63 | 1013.6 |
| 20260905154510 | 79 | 62 | 5.0 | 0.0 | 0.00 | 0.00 | 0.00 | 63 | 1013.6 |
| 20260905153957 | 79 | 137 | 3.0 | 0.0 | 0.00 | 0.00 | 0.00 | 62 | 1013.5 |
| 20260905153456 | 79 | 330 | 4.0 | 0.0 | 0.00 | 0.00 | 0.00 | 62 | 1013.5 |
| 20260905152957 | 79 | 284 | 7.0 | 0.0 | 0.00 | 0.00 | 0.00 | 61 | 1013.4 |
| 20260905152511 | 78 | 284 | 9.0 | 0.0 | 0.00 | 0.00 | 0.00 | 62 | 1013.4 |
| 20260905151957 | 78 | 305 | 14.0 | 0.0 | 0.00 | 0.00 | 0.00 | 63 | 1013.4 |
| 20260905151457 | 79 | 345 | 8.0 | 0.0 | 0.00 | 0.00 | 0.00 | 62 | 1013.4 |
| 20260905150957 | 78 | 316 | 13.0 | 0.0 | 0.00 | 0.00 | 0.00 | 62 | 1013.4 |
| 20260905150510 | 78 | 328 | 16.0 | 0.0 | 0.00 | 0.00 | 0.00 | 62 | 1013.3 |
| 20260905145956 | 78 | 281 | 7.0 | 0.0 | 0.00 | 0.00 | 0.00 | 63 | 1013.4 |
| 20260905145457 | 77 | 297 | 11.0 | 0.0 | 0.00 | 0.00 | 0.00 | 63 | 1013.4 |
| 20260905144955 | 77 | 295 | 11.0 | 0.0 | 0.00 | 0.00 | 0.00 | 63 | 1013.5 |
| 20260905144456 | 77 | 31 | 8.0 | 0.0 | 0.00 | 0.00 | 0.00 | 64 | 1013.5 |
| 20260905143956 | 76 | 313 | 6.0 | 0.0 | 0.00 | 0.00 | 0.00 | 64 | 1013.4 |
| 20260905143511 | 76 | 289 | 11.0 | 0.0 | 0.00 | 0.00 | 0.00 | 64 | 1013.5 |
| 20260905142956 | 76 | 321 | 8.0 | 0.0 | 0.00 | 0.00 | 0.00 | 64 | 1013.7 |
| 20260905142456 | 76 | 319 | 4.0 | 0.0 | 0.00 | 0.00 | 0.00 | 64 | 1013.6 |
| 20260905141955 | 75 | 334 | 6.0 | 0.0 | 0.00 | 0.00 | 0.00 | 65 | 1013.6 |
| 20260905141457 | 75 | 312 | 12.0 | 0.0 | 0.00 | 0.00 | 0.00 | 66 | 1013.6 |
| 20260905140957 | 74 | 354 | 11.0 | 0.0 | 0.00 | 0.00 | 0.00 | 67 | 1013.6 |
| 20260905140456 | 74 | 312 | 12.0 | 0.0 | 0.00 | 0.00 | 0.00 | 67 | 1013.7 |
| 20260905135955 | 74 | 354 | 8.0 | 0.0 | 0.00 | 0.00 | 0.00 | 68 | 1013.7 |
| 20260905135455 | 74 | 346 | 16.0 | 0.0 | 0.00 | 0.00 | 0.00 | 66 | 1013.7 |
| 20260905134957 | 74 | 352 | 10.0 | 0.0 | 0.00 | 0.00 | 0.00 | 66 | 1013.6 |
| 20260905134456 | 74 | 345 | 8.0 | 0.0 | 0.00 | 0.00 | 0.00 | 66 | 1013.6 |
| 20260905133955 | 74 | 74 | 3.0 | 0.0 | 0.00 | 0.00 | 0.00 | 68 | 1013.6 |
| 20260905133457 | 73 | 293 | 10.0 | 0.0 | 0.00 | 0.00 | 0.00 | 68 | 1013.6 |
| 20260905132955 | 72 | 8 | 10.0 | 0.0 | 0.00 | 0.00 | 0.00 | 69 | 1013.7 |
| 20260905132455 | 72 | 349 | 18.0 | 0.0 | 0.00 | 0.00 | 0.00 | 71 | 1013.8 |
| 20260905131956 | 71 | 38 | 7.0 | 0.0 | 0.00 | 0.00 | 0.00 | 72 | 1013.8 |
| 20260905131456 | 71 | 352 | 10.0 | 0.0 | 0.00 | 0.00 | 0.00 | 72 | 1013.8 |
| 20260905130955 | 71 | 339 | 6.0 | 0.0 | 0.00 | 0.00 | 0.00 | 73 | 1013.9 |
| 20260905130457 | 70 | 346 | 10.0 | 0.0 | 0.00 | 0.00 | 0.00 | 74 | 1013.9 |
| 20260905125957 | 70 | 347 | 13.0 | 0.0 | 0.00 | 0.00 | 0.00 | 74 | 1013.9 |
| 20260905125456 | 70 | 336 | 11.0 | 0.0 | 0.00 | 0.00 | 0.00 | 74 | 1014.1 |
| 20260905124956 | 70 | 333 | 6.0 | 0.0 | 0.00 | 0.00 | 0.00 | 74 | 1014.0 |
| 20260905124457 | 70 | 325 | 10.0 | 0.0 | 0.00 | 0.00 | 0.00 | 74 | 1014.0 |
| 20260905123957 | 69 | 346 | 7.0 | 0.0 | 0.00 | 0.00 | 0.00 | 74 | 1014.1 |
| 20260905123456 | 69 | 6 | 6.0 | 0.0 | 0.00 | 0.00 | 0.00 | 74 | 1014.0 |
| 20260905122957 | 69 | 339 | 10.0 | 0.0 | 0.00 | 0.00 | 0.00 | 74 | 1014.0 |
| 20260905122510 | 69 | 305 | 7.0 | 0.0 | 0.00 | 0.00 | 0.00 | 75 | 1014.0 |
| 20260905121957 | 69 | 345 | 8.0 | 0.0 | 0.00 | 0.00 | 0.00 | 75 | 1014.0 |
| 20260905121455 | 69 | 338 | 7.0 | 0.0 | 0.00 | 0.00 | 0.00 | 75 | 1014.0 |
| 20260905120957 | 69 | 2 | 4.0 | 0.0 | 0.00 | 0.00 | 0.00 | 76 | 1014.1 |
| 20260905120457 | 69 | 87 | 3.0 | 0.0 | 0.00 | 0.00 | 0.00 | 76 | 1014.0 |
| 20260905115956 | 69 | 4 | 5.0 | 0.0 | 0.00 | 0.00 | 0.00 | 76 | 1014.0 |
| 20260905115510 | 69 | 350 | 6.0 | 0.0 | 0.00 | 0.00 | 0.00 | 75 | 1013.9 |
| 20260905114957 | 70 | 0 | 4.0 | 0.0 | 0.00 | 0.00 | 0.00 | 75 | 1013.8 |
| 20260905114456 | 70 | 360 | 5.0 | 0.0 | 0.00 | 0.00 | 0.00 | 75 | 1013.8 |
| 20260905113956 | 70 | 49 | 3.0 | 0.0 | 0.00 | 0.00 | 0.00 | 76 | 1013.8 |
| 20260905113457 | 70 | 358 | 6.0 | 0.0 | 0.00 | 0.00 | 0.00 | 75 | 1013.8 |
| 20260905112955 | 70 | 29 | 2.0 | 0.0 | 0.00 | 0.00 | 0.00 | 75 | 1013.8 |
| 20260905112455 | 70 | 36 | 3.0 | 0.0 | 0.00 | 0.00 | 0.00 | 75 | 1013.7 |
| 20260905111955 | 70 | 347 | 6.0 | 0.0 | 0.00 | 0.00 | 0.00 | 76 | 1013.6 |
| 20260905111455 | 70 | 39 | 4.0 | 0.0 | 0.00 | 0.00 | 0.00 | 76 | 1013.6 |
| 20260905110956 | 70 | 353 | 4.0 | 0.0 | 0.00 | 0.00 | 0.00 | 76 | 1013.5 |
| 20260905110456 | 70 | 308 | 6.0 | 0.0 | 0.00 | 0.00 | 0.00 | 76 | 1013.4 |
| 20260905105955 | 71 | 28 | 3.0 | 0.0 | 0.00 | 0.00 | 0.00 | 75 | 1013.4 |
| 20260905105455 | 71 | 350 | 4.0 | 0.0 | 0.00 | 0.00 | 0.00 | 74 | 1013.3 |
| 20260905104955 | 71 | 272 | 2.0 | 0.0 | 0.00 | 0.00 | 0.00 | 74 | 1013.2 |
| 20260905104510 | 71 | 13 | 2.0 | 0.0 | 0.00 | 0.00 | 0.00 | 74 | 1013.2 |
| 20260905103956 | 71 | 19 | 2.0 | 0.0 | 0.00 | 0.00 | 0.00 | 74 | 1013.2 |
| 20260905103457 | 71 | 51 | 3.0 | 0.0 | 0.00 | 0.00 | 0.00 | 74 | 1013.0 |
| 20260905102955 | 71 | 358 | 7.0 | 0.0 | 0.00 | 0.00 | 0.00 | 74 | 1013.0 |
| 20260905102456 | 71 | 338 | 8.0 | 0.0 | 0.00 | 0.00 | 0.00 | 76 | 1012.9 |
| 20260905101955 | 70 | 295 | 3.0 | 0.0 | 0.00 | 0.00 | 0.00 | 77 | 1012.8 |
| 20260905101457 | 71 | 355 | 10.0 | 0.0 | 0.00 | 0.00 | 0.00 | 77 | 1012.9 |
| 20260905101010 | 71 | 360 | 8.0 | 0.0 | 0.00 | 0.00 | 0.00 | 77 | 1012.9 |
| 20260905100455 | 71 | 24 | 6.0 | 0.0 | 0.00 | 0.00 | 0.00 | 76 | 1012.8 |
| 20260905095956 | 71 | 218 | 2.0 | 0.0 | 0.00 | 0.00 | 0.00 | 76 | 1012.6 |
| 20260905095455 | 72 | 1 | 10.0 | 0.0 | 0.00 | 0.00 | 0.00 | 76 | 1012.6 |
| 20260905094957 | 72 | 351 | 9.0 | 0.0 | 0.00 | 0.00 | 0.00 | 75 | 1012.6 |
| 20260905094455 | 72 | 10 | 6.0 | 0.0 | 0.00 | 0.00 | 0.00 | 75 | 1012.5 |
| 20260905093955 | 72 | 326 | 5.0 | 0.0 | 0.00 | 0.00 | 0.00 | 75 | 1012.4 |
| 20260905093455 | 72 | 306 | 10.0 | 0.0 | 0.00 | 0.00 | 0.00 | 75 | 1012.3 |
| 20260905092957 | 72 | 336 | 13.0 | 0.0 | 0.00 | 0.00 | 0.00 | 76 | 1012.3 |
| 20260905092457 | 72 | 330 | 7.0 | 0.0 | 0.00 | 0.00 | 0.00 | 76 | 1012.3 |
| 20260905091955 | 72 | 357 | 8.0 | 0.0 | 0.00 | 0.00 | 0.00 | 77 | 1012.2 |
| 20260905091510 | 72 | 23 | 6.0 | 0.0 | 0.00 | 0.00 | 0.00 | 78 | 1012.2 |
| 20260905090955 | 72 | 352 | 9.0 | 0.0 | 0.00 | 0.00 | 0.00 | 79 | 1012.2 |
| 20260905090456 | 72 | 325 | 6.0 | 0.0 | 0.00 | 0.00 | 0.00 | 80 | 1012.1 |
| 20260905085956 | 72 | 147 | 2.0 | 0.0 | 0.00 | 0.00 | 0.00 | 80 | 1012.2 |
| 20260905085511 | 72 | 1 | 4.0 | 0.0 | 0.00 | 0.00 | 0.00 | 80 | 1012.2 |
| 20260905084955 | 72 | 350 | 9.0 | 0.0 | 0.00 | 0.00 | 0.00 | 80 | 1012.4 |
| 20260905084456 | 72 | 7 | 11.0 | 0.0 | 0.00 | 0.00 | 0.00 | 81 | 1012.5 |
| 20260905083957 | 72 | 334 | 4.0 | 0.0 | 0.00 | 0.00 | 0.00 | 81 | 1012.5 |
| 20260905083455 | 72 | 346 | 4.0 | 0.0 | 0.00 | 0.00 | 0.00 | 81 | 1012.6 |
| 20260905083010 | 72 | 18 | 2.0 | 0.0 | 0.00 | 0.00 | 0.00 | 80 | 1012.6 |
| 20260905082456 | 72 | 10 | 4.0 | 0.0 | 0.00 | 0.00 | 0.00 | 80 | 1012.7 |
| 20260905081956 | 73 | 321 | 4.0 | 0.0 | 0.00 | 0.00 | 0.00 | 79 | 1012.9 |
| 20260905081456 | 73 | 310 | 4.0 | 0.0 | 0.00 | 0.00 | 0.00 | 79 | 1013.0 |
| 20260905080955 | 73 | 257 | 11.0 | 0.0 | 0.00 | 0.00 | 0.00 | 78 | 1013.0 |
| 20260905080457 | 73 | 353 | 6.0 | 0.0 | 0.00 | 0.00 | 0.00 | 78 | 1013.1 |
| 20260905075955 | 73 | 325 | 6.0 | 0.0 | 0.00 | 0.00 | 0.00 | 79 | 1013.2 |
| 20260905075456 | 73 | 353 | 10.0 | 0.0 | 0.00 | 0.00 | 0.00 | 79 | 1013.3 |
| 20260905075012 | 73 | 338 | 3.0 | 0.0 | 0.00 | 0.00 | 0.00 | 79 | 1013.4 |
| 20260905074455 | 73 | 332 | 10.0 | 0.0 | 0.00 | 0.00 | 0.00 | 79 | 1013.4 |
| 20260905073955 | 73 | 305 | 10.0 | 0.0 | 0.00 | 0.00 | 0.00 | 80 | 1013.4 |
| 20260905073511 | 72 | 338 | 9.0 | 0.0 | 0.00 | 0.00 | 0.00 | 80 | 1013.6 |
| 20260905072956 | 72 | 314 | 4.0 | 0.0 | 0.00 | 0.00 | 0.00 | 80 | 1013.7 |
| 20260905072456 | 73 | 344 | 13.0 | 0.0 | 0.00 | 0.00 | 0.00 | 80 | 1013.8 |
| 20260905071955 | 73 | 56 | 5.0 | 0.0 | 0.00 | 0.00 | 0.00 | 80 | 1013.9 |
| 20260905071455 | 72 | 332 | 10.0 | 0.0 | 0.00 | 0.00 | 0.00 | 80 | 1014.0 |
| 20260905070956 | 72 | 33 | 13.0 | 0.0 | 0.00 | 0.00 | 0.00 | 80 | 1014.2 |
| 20260905070455 | 73 | 26 | 10.0 | 0.0 | 0.00 | 0.00 | 0.00 | 80 | 1014.3 |
| 20260905065956 | 72 | 324 | 8.0 | 0.0 | 0.00 | 0.00 | 0.00 | 80 | 1014.5 |
| 20260905065456 | 72 | 330 | 11.0 | 0.0 | 0.00 | 0.00 | 0.00 | 80 | 1014.6 |
| 20260905064955 | 72 | 341 | 10.0 | 0.0 | 0.00 | 0.00 | 0.00 | 80 | 1014.6 |
| 20260905064455 | 73 | 331 | 7.0 | 0.0 | 0.00 | 0.00 | 0.00 | 80 | 1014.8 |
| 20260905063956 | 72 | 320 | 8.0 | 0.0 | 0.00 | 0.00 | 0.00 | 80 | 1014.9 |
| 20260905063455 | 72 | 351 | 6.0 | 0.0 | 0.00 | 0.00 | 0.00 | 80 | 1015.0 |
| 20260905063012 | 72 | 330 | 7.0 | 0.0 | 0.00 | 0.00 | 0.00 | 80 | 1015.1 |
| 20260905062510 | 72 | 327 | 9.0 | 0.0 | 0.00 | 0.00 | 0.00 | 80 | 1015.2 |
| 20260905061955 | 73 | 38 | 5.0 | 0.0 | 0.00 | 0.00 | 0.00 | 80 | 1015.2 |
| 20260905061455 | 73 | 353 | 9.0 | 0.0 | 0.00 | 0.00 | 0.00 | 80 | 1015.2 |
| 20260905060957 | 73 | 358 | 9.0 | 0.0 | 0.00 | 0.00 | 0.00 | 80 | 1015.4 |
| 20260905060457 | 73 | 297 | 11.0 | 0.0 | 0.00 | 0.00 | 0.00 | 80 | 1015.4 |
| 20260905055957 | 73 | 338 | 7.0 | 0.0 | 0.00 | 0.00 | 0.00 | 80 | 1015.4 |
| 20260905055456 | 73 | 21 | 10.0 | 0.0 | 0.00 | 0.00 | 0.00 | 81 | 1015.4 |
| 20260905054956 | 73 | 358 | 6.0 | 0.0 | 0.00 | 0.00 | 0.00 | 81 | 1015.5 |
| 20260905054457 | 73 | 319 | 7.0 | 0.0 | 0.00 | 0.00 | 0.00 | 81 | 1015.5 |
| 20260905053957 | 73 | 27 | 2.0 | 0.0 | 0.00 | 0.00 | 0.00 | 80 | 1015.6 |
| 20260905053455 | 74 | 345 | 7.0 | 0.0 | 0.00 | 0.00 | 0.00 | 80 | 1015.7 |
| 20260905052955 | 74 | 16 | 4.0 | 0.0 | 0.00 | 0.00 | 0.00 | 80 | 1015.7 |
| 20260905052457 | 74 | 352 | 5.0 | 0.0 | 0.00 | 0.00 | 0.00 | 80 | 1015.8 |
| 20260905052003 | 74 | 23 | 6.0 | 0.0 | 0.00 | 0.00 | 0.00 | 80 | 1015.9 |
| 20260905051457 | 74 | 166 | 1.0 | 0.0 | 0.00 | 0.00 | 0.00 | 80 | 1016.0 |
| 20260905050956 | 74 | 343 | 6.0 | 0.0 | 0.00 | 0.00 | 0.00 | 80 | 1016.1 |
| 20260905050456 | 74 | 356 | 6.0 | 0.0 | 0.00 | 0.00 | 0.00 | 81 | 1016.1 |
| 20260905045955 | 75 | 89 | 3.0 | 0.0 | 0.00 | 0.00 | 0.00 | 81 | 1016.2 |
| 20260905045510 | 75 | 29 | 5.0 | 0.0 | 0.00 | 0.00 | 0.00 | 82 | 1016.2 |
| 20260905044957 | 75 | 309 | 3.0 | 0.0 | 0.00 | 0.00 | 0.00 | 82 | 1016.2 |
| 20260905044455 | 75 | 337 | 2.0 | 0.0 | 0.00 | 0.00 | 0.00 | 82 | 1016.1 |
| 20260905043957 | 75 | 302 | 7.0 | 0.0 | 0.00 | 0.00 | 0.00 | 82 | 1016.2 |
| 20260905043511 | 75 | 272 | 7.0 | 0.0 | 0.00 | 0.00 | 0.00 | 82 | 1016.3 |
| 20260905042956 | 75 | 322 | 6.0 | 0.0 | 0.00 | 0.00 | 0.00 | 82 | 1016.3 |
| 20260905042455 | 75 | 301 | 8.0 | 0.0 | 0.00 | 0.00 | 0.00 | 82 | 1016.4 |
| 20260905041955 | 75 | 242 | 3.0 | 0.0 | 0.00 | 0.00 | 0.00 | 81 | 1016.4 |
| 20260905041456 | 75 | 291 | 10.0 | 0.0 | 0.00 | 0.00 | 0.00 | 81 | 1016.4 |
| 20260905040955 | 75 | 330 | 3.0 | 0.0 | 0.00 | 0.00 | 0.00 | 78 | 1016.4 |
| 20260905040455 | 75 | 360 | 2.0 | 0.0 | 0.00 | 0.00 | 0.00 | 78 | 1016.4 |